Flag for U.S.A. Weather past 2 weeks in Des Moines, Iowa, U.S.A.

Now
70 °F

Scattered clouds.


Feels Like: 77 °F
Forecast: 54 / 68 °F
Wind: 14 mph from North

Location: Des Moines International Airport

Current Time: Sep 21, 2014 at 2:07:02 PM

Latest Report: Sep 21, 2014 at 12:54 PM


Visibility: 10 mi

Pressure: 30.13 "Hg

Humidity: 46%

Dew point: 48 °F

Location of Des MoinesLocation

Historic Weather in Des Moines — Graph

°F

Des Moines temperature yesterday

Maximum temperature yesterday: 85 °F (at 4:54 PM)
Minimum temperature yesterday: 66 °F (at 11:54 PM)
Average temperature yesterday: 74 °F

Past Weeks' High & Low Weather Summary

 TemperatureHumidityPressure
High85 °F (Sep 20, 4:54 PM)97% (Sep 18, 7:54 AM)30.44 "Hg (Sep 18, 7:54 AM)
Low40 °F (Sep 13, 6:54 AM)39% (Sep 7, 2:54 PM)29.51 "Hg (Sep 10, 1:54 AM)
Average62 °F72%30.07 "Hg
* Reported Sep 6 12:54 PM — Sep 21 12:54 PM, Des Moines, Weather by CustomWeather, © 2014

Note: Actual official high and low records may vary slightly from our data, if they occured in-between our weather recording intervals... More about our weather records

Advertising

Des Moines weather history for previous 24 hours

 ConditionsComfort  
Time TempWeatherWind HumidityBarometerVisibility
12:54 PM
Sep 21
70 °FScattered clouds.14 mph46%30.13 "Hg10 mi
11:54 AM68 °FScattered clouds.20 mph47%30.12 "Hg10 mi
10:54 AM66 °FPassing clouds.16 mph50%30.11 "Hg10 mi
9:54 AM64 °FSunny.21 mph56%30.10 "Hg10 mi
8:54 AM60 °FSunny.15 mph65%30.09 "Hg10 mi
7:54 AM57 °FClear.10 mph72%30.06 "Hg10 mi
6:54 AM56 °FClear.9 mph72%30.03 "Hg10 mi
5:54 AM58 °FClear.14 mph70%30.00 "Hg10 mi
4:54 AM57 °FClear.10 mph78%29.98 "Hg10 mi
3:54 AM56 °FClear.8 mph84%29.98 "Hg10 mi
2:54 AM57 °FClear.6 mph81%29.98 "Hg10 mi
1:54 AM59 °FClear.6 mph75%29.99 "Hg10 mi
12:54 AM62 °FClear.6 mph67%29.99 "Hg10 mi
11:54 PM
Sep 20
66 °FPassing clouds.12 mph59%29.98 "Hg10 mi
10:54 PM69 °FPassing clouds.16 mph55%29.95 "Hg10 mi
9:54 PM71 °FPassing clouds.9 mph63%29.85 "Hg10 mi
8:54 PM72 °FClear.8 mph64%29.85 "Hg10 mi
7:54 PM74 °FPassing clouds.7 mph57%29.84 "Hg10 mi
6:54 PM78 °FPassing clouds.9 mph50%29.84 "Hg8 mi
5:54 PM82 °FPassing clouds.9 mph46%29.83 "Hg10 mi
4:54 PM85 °FPassing clouds.14 mph46%29.82 "Hg10 mi
3:54 PM84 °FScattered clouds.15 mph53%29.83 "Hg10 mi
2:54 PM84 °FScattered clouds.15 mph53%29.83 "Hg10 mi
Weather by CustomWeather, © 2014

See weather overviewHow to use our weather pages